FW1633 Weather Reports


time (UTC)temp
C
wind
direction
speed
KPH
gust
KPH
rain 1hr
cm
rain 24hr
cm
rain mn
cm
humidity
%
barometer
mb
20260506002511 18 292 0.0 0.0 0.00 0.00 0.00 72 1010.2
20260506002010 18 193 0.0 0.0 0.00 0.00 0.00 72 1010.2
20260506001528 18 249 0.0 0.0 0.00 0.00 0.00 72 1010.2
20260506001008 18 237 0.0 0.0 0.00 0.00 0.00 72 1010.2
20260506000510 18 236 0.0 0.0 0.00 0.00 0.00 72 1010.2
20260506000036 18 215 0.0 0.0 0.00 0.00 0.00 72 1010.0
20260505235511 18 217 0.0 0.0 0.00 0.00 0.00 72 1010.0
20260505235006 18 224 0.0 0.0 0.00 0.00 0.00 72 1009.9
20260505234520 18 232 0.0 0.0 0.00 0.00 0.00 72 1009.9
20260505234006 18 226 0.0 0.0 0.00 0.00 0.00 72 1009.9
20260505233511 18 136 0.0 0.0 0.00 0.00 0.00 72 1009.8
20260505233023 18 251 0.0 0.0 0.00 0.00 0.00 72 1009.6
20260505232509 18 237 0.0 0.0 0.00 0.00 0.00 71 1009.6
20260505232011 18 233 0.0 0.0 0.00 0.00 0.00 71 1009.6
20260505231525 18 291 0.0 0.0 0.00 0.00 0.00 71 1009.5
20260505231008 18 57 0.0 0.0 0.00 0.00 0.00 70 1009.4
20260505230509 19 219 0.0 0.0 0.00 0.00 0.00 70 1009.3
20260505230033 19 250 0.0 0.0 0.00 0.00 0.00 70 1009.1
20260505225511 19 98 0.0 0.0 0.00 0.00 0.00 70 1009.1
20260505225012 19 139 0.0 0.0 0.00 0.00 0.00 70 1008.9
20260505224536 19 151 0.0 0.0 0.00 0.00 0.00 70 1008.8
20260505224013 20 247 0.0 0.0 0.00 0.00 0.00 69 1008.8
20260505223509 20 231 0.0 0.0 0.00 0.00 0.00 68 1008.9
20260505223036 20 218 0.0 0.0 0.00 0.00 0.00 67 1009.0
20260505222507 20 152 0.0 0.0 0.00 0.00 0.00 66 1009.0
20260505222010 21 136 0.0 0.0 0.00 0.00 0.00 66 1008.9
20260505221525 21 190 0.0 0.0 0.00 0.00 0.00 65 1008.7
20260505221006 21 214 0.0 0.0 0.00 0.00 0.00 65 1008.6
20260505220507 21 211 0.0 0.0 0.00 0.00 0.00 65 1008.7
20260505220037 21 199 0.0 0.0 0.00 0.00 0.00 65 1008.7
20260505215515 21 231 0.0 0.0 0.00 0.00 0.00 65 1008.7
20260505215004 21 188 0.0 0.0 0.00 0.00 0.00 65 1008.6
20260505214503 21 188 0.0 0.0 0.00 0.00 0.00 65 1008.7
20260505214006 21 208 0.0 0.0 0.00 0.00 0.00 65 1008.5
20260505213502 21 210 0.0 0.0 0.00 0.00 0.00 65 1008.5
20260505213003 21 105 0.0 0.0 0.00 0.00 0.00 65 1008.4
20260505212503 21 214 0.0 0.0 0.00 0.00 0.00 65 1008.4
20260505212002 21 117 0.0 0.0 0.00 0.00 0.00 64 1008.5
20260505211504 21 112 0.0 0.0 0.00 0.00 0.00 64 1008.5
20260505211004 21 164 0.0 0.0 0.00 0.00 0.00 63 1008.4
20260505210503 21 240 0.0 0.0 0.00 0.00 0.00 63 1008.3
20260505210009 22 292 0.0 0.0 0.00 0.00 0.00 63 1008.3
20260505205507 22 186 0.0 0.0 0.00 0.00 0.00 63 1008.3
20260505205009 22 189 0.0 0.0 0.00 0.00 0.00 63 1008.3
20260505204505 21 267 0.0 0.0 0.00 0.00 0.00 64 1008.4
20260505204002 21 174 0.0 0.0 0.00 0.00 0.00 64 1008.5
20260505203502 22 220 0.0 0.0 0.00 0.00 0.00 63 1008.5
20260505203003 22 131 0.0 0.0 0.00 0.00 0.00 62 1008.3
20260505202503 22 241 0.0 0.0 0.00 0.00 0.00 61 1008.4
20260505202003 22 164 0.0 0.0 0.00 0.00 0.00 60 1008.4
20260505201504 23 239 0.0 0.0 0.00 0.00 0.00 60 1008.4
20260505201003 23 236 0.0 0.0 0.00 0.00 0.00 60 1008.6
20260505200506 23 181 0.0 0.0 0.00 0.00 0.00 60 1008.7
20260505200009 23 185 0.0 0.0 0.00 0.00 0.00 59 1008.7
20260505195503 23 83 0.0 0.0 0.00 0.00 0.00 59 1008.6
20260505195003 24 152 0.0 0.0 0.00 0.00 0.00 59 1008.8
20260505194510 23 72 0.0 0.0 0.00 0.00 0.00 59 1008.8
20260505194005 23 212 0.0 0.0 0.00 0.00 0.00 60 1009.1
20260505193503 23 238 0.0 0.0 0.00 0.00 0.00 60 1009.2
20260505193035 23 132 0.0 0.0 0.00 0.00 0.00 59 1009.2
20260505192502 23 154 0.0 0.0 0.00 0.00 0.00 61 1009.2
20260505192002 22 240 0.0 0.0 0.00 0.00 0.00 61 1009.4
20260505191503 22 204 0.0 0.0 0.00 0.00 0.00 61 1009.4
20260505191004 22 83 0.0 0.0 0.00 0.00 0.00 61 1009.6
20260505190503 22 207 0.0 0.0 0.00 0.00 0.00 61 1009.7
20260505190013 22 162 0.0 0.0 0.00 0.00 0.00 62 1009.8
20260505185506 22 226 0.0 0.0 0.00 0.00 0.00 62 1009.9
20260505185004 22 205 0.0 0.0 0.00 0.00 0.00 63 1010.1
20260505184506 22 221 0.0 0.0 0.00 0.00 0.00 63 1010.0
20260505184004 22 206 0.0 0.0 0.00 0.00 0.00 61 1010.2
20260505183503 22 229 0.0 0.0 0.00 0.00 0.00 62 1010.2
20260505183022 22 163 0.0 0.0 0.00 0.00 0.00 61 1010.3
20260505182503 22 200 0.0 0.0 0.00 0.00 0.00 62 1010.3
20260505182007 22 109 0.0 0.0 0.00 0.00 0.00 62 1010.3
20260505181521 22 138 0.0 0.0 0.00 0.00 0.00 61 1010.3
20260505181014 23 109 0.0 0.0 0.00 0.00 0.00 62 1010.3
20260505180501 23 172 0.0 0.0 0.00 0.00 0.00 62 1010.5
20260505180003 23 149 0.0 0.0 0.00 0.00 0.00 61 1010.5
20260505175500 23 113 0.0 0.0 0.00 0.00 0.00 61 1010.5
20260505175001 22 123 0.0 0.0 0.00 0.00 0.00 62 1010.5
20260505174505 22 153 0.0 0.0 0.00 0.00 0.00 62 1010.6
20260505174004 22 91 0.0 0.0 0.00 0.00 0.00 62 1010.6
20260505173504 22 140 0.0 0.0 0.00 0.00 0.00 62 1010.7
20260505173008 22 117 0.0 0.0 0.00 0.00 0.00 61 1010.7
20260505172503 23 120 0.0 0.0 0.00 0.00 0.00 60 1010.7
20260505172003 23 213 0.0 0.0 0.00 0.00 0.00 59 1010.7
20260505171526 23 138 0.0 0.0 0.00 0.00 0.00 58 1010.6
20260505171003 23 181 0.0 0.0 0.00 0.00 0.00 56 1010.7
20260505170505 25 132 0.0 0.0 0.00 0.00 0.00 56 1010.8
20260505170021 25 228 0.0 0.0 0.00 0.00 0.00 55 1010.8
20260505165504 25 99 0.0 0.0 0.00 0.00 0.00 54 1010.8
20260505165003 25 164 0.0 0.0 0.00 0.00 0.00 56 1010.9
20260505164504 25 150 0.0 0.0 0.00 0.00 0.00 55 1010.9
20260505164000 25 141 0.0 0.0 0.00 0.00 0.00 55 1011.0
20260505163504 25 74 0.0 0.0 0.00 0.00 0.00 56 1011.0
20260505163009 24 217 0.0 0.0 0.00 0.00 0.00 56 1011.1
20260505162502 25 190 0.0 0.0 0.00 0.00 0.00 55 1011.1
20260505162004 25 274 0.0 0.0 0.00 0.00 0.00 56 1011.2
20260505161512 25 101 0.0 0.0 0.00 0.00 0.00 55 1011.2
20260505161004 24 231 0.0 0.0 0.00 0.00 0.00 55 1011.3
20260505160504 24 233 0.0 0.0 0.00 0.00 0.00 54 1011.4
20260505153008 23 17 0.0 0.0 0.00 0.00 0.00 59 1011.7
20260505152503 23 216 0.0 0.0 0.00 0.00 0.00 59 1011.8
20260505152006 23 230 0.0 0.0 0.00 0.00 0.00 60 1011.6
20260505151508 22 238 0.0 0.0 0.00 0.00 0.00 61 1011.6
20260505151007 22 169 0.0 0.0 0.00 0.00 0.00 61 1011.7
20260505150504 22 145 0.0 0.0 0.00 0.00 0.00 60 1011.9
20260505140509 22 165 0.0 0.0 0.00 0.00 0.00 60 1012.0
20260505125009 19 234 0.0 0.0 0.00 0.00 0.00 68 1011.6
20260505124517 19 166 0.0 0.0 0.00 0.00 0.00 69 1011.7
20260505124009 19 196 0.0 0.0 0.00 0.00 0.00 70 1011.7
20260505123501 19 191 0.0 0.0 0.00 0.00 0.00 70 1011.8
20260505123001 18 231 0.0 0.0 0.00 0.00 0.00 71 1011.6
20260505122500 18 216 0.0 0.0 0.00 0.00 0.00 71 1011.6
20260505122001 18 233 0.0 0.0 0.00 0.00 0.00 71 1011.6
20260505121501 18 125 0.0 0.0 0.00 0.00 0.00 71 1011.7
20260505121001 18 221 0.0 0.0 0.00 0.00 0.00 73 1011.7
20260505120504 18 176 0.0 0.0 0.00 0.00 0.00 73 1011.7
20260505120005 18 217 0.0 0.0 0.00 0.00 0.00 73 1011.6
20260505115502 17 232 0.0 0.0 0.00 0.00 0.00 76 1011.5
20260505115005 17 141 0.0 0.0 0.00 0.00 0.00 77 1011.7
20260505114509 16 228 0.0 0.0 0.00 0.00 0.00 78 1011.9
20260505114006 16 209 0.0 0.0 0.00 0.00 0.00 80 1011.8
20260505113504 15 208 0.0 0.0 0.00 0.00 0.00 80 1011.8
20260505113018 15 231 0.0 0.0 0.00 0.00 0.00 81 1011.8
20260505112504 15 259 0.0 0.0 0.00 0.00 0.00 81 1011.8
20260505112001 15 217 0.0 0.0 0.00 0.00 0.00 81 1011.8
20260505111509 15 220 0.0 0.0 0.00 0.00 0.00 82 1011.9
20260505111002 15 207 0.0 0.0 0.00 0.00 0.00 81 1011.9
20260505110502 15 224 0.0 0.0 0.00 0.00 0.00 82 1011.8
20260505102008 12 196 0.0 0.0 0.00 0.00 0.00 90 1011.8
20260505101518 12 226 0.0 0.0 0.00 0.00 0.00 90 1011.5
20260505101005 12 233 0.0 0.0 0.00 0.00 0.00 91 1011.3
20260505100506 12 233 0.0 0.0 0.00 0.00 0.00 91 1011.2
20260505100002 12 230 0.0 0.0 0.00 0.00 0.00 91 1011.1
20260505095502 11 155 0.0 0.0 0.00 0.00 0.00 91 1011.0
20260505095001 11 150 0.0 0.0 0.00 0.00 0.00 91 1010.9
20260505094004 11 208 0.0 0.0 0.00 0.00 0.00 91 1010.8
20260505093506 11 224 0.0 0.0 0.00 0.00 0.00 91 1010.9
20260505093010 11 85 0.0 0.0 0.00 0.00 0.00 91 1011.0
20260505092504 11 90 0.0 0.0 0.00 0.00 0.00 91 1010.9
20260505092005 11 157 0.0 0.0 0.00 0.00 0.00 91 1010.9
20260505091522 11 146 0.0 0.0 0.00 0.00 0.00 91 1010.8
20260505091006 12 144 0.0 0.0 0.00 0.00 0.00 91 1010.9
20260505090505 12 151 0.0 0.0 0.00 0.00 0.00 90 1010.9
20260505090040 12 217 0.0 0.0 0.00 0.00 0.00 90 1010.9
20260505085505 12 145 0.0 0.0 0.00 0.00 0.00 90 1010.9
20260505085005 12 161 0.0 0.0 0.00 0.00 0.00 90 1011.0
20260505084525 12 147 0.0 0.0 0.00 0.00 0.00 90 1011.0
20260505084002 12 236 0.0 0.0 0.00 0.00 0.00 90 1011.0
20260505083502 12 68 0.0 0.0 0.00 0.00 0.00 90 1011.0
20260505083011 12 229 0.0 0.0 0.00 0.00 0.00 91 1010.9
20260505082502 12 214 0.0 0.0 0.00 0.00 0.00 91 1010.8
20260505082004 12 219 0.0 0.0 0.00 0.00 0.00 91 1010.9
20260505081512 12 193 0.0 0.0 0.00 0.00 0.00 91 1010.9
20260505081005 12 191 0.0 0.0 0.00 0.00 0.00 91 1010.9
20260505080505 12 155 0.0 0.0 0.00 0.00 0.00 91 1010.9
20260505080040 12 231 0.0 0.0 0.00 0.00 0.00 91 1010.9
20260505075506 12 210 0.0 0.0 0.00 0.00 0.00 91 1010.8
20260505075006 12 218 0.0 0.0 0.00 0.00 0.00 91 1010.8
20260505074521 12 228 0.0 0.0 0.00 0.00 0.00 91 1010.9
20260505074006 12 235 0.0 0.0 0.00 0.00 0.00 91 1010.8
20260505073507 12 141 0.0 0.0 0.00 0.00 0.00 91 1010.8
20260505073032 12 212 0.0 0.0 0.00 0.00 0.00 91 1010.8
20260505072507 12 239 0.0 0.0 0.00 0.00 0.00 90 1010.8
20260505072003 12 246 0.0 0.0 0.00 0.00 0.00 90 1010.7
20260505071510 12 234 0.0 0.0 0.00 0.00 0.00 90 1010.8
20260505071002 12 223 0.0 0.0 0.00 0.00 0.00 90 1010.8
20260505070505 12 163 0.0 0.0 0.00 0.00 0.00 90 1010.8
20260505070021 12 134 0.0 0.0 0.00 0.00 0.00 90 1010.7
20260505065504 12 153 0.0 0.0 0.00 0.00 0.00 90 1010.9
20260505065004 12 216 0.0 0.0 0.00 0.00 0.00 89 1010.8
20260505064521 12 223 0.0 0.0 0.00 0.00 0.00 89 1010.8
20260505064012 12 250 0.0 0.0 0.00 0.00 0.00 89 1010.8
20260505063511 12 232 0.0 0.0 0.00 0.00 0.00 89 1010.9
20260505063023 12 219 0.0 0.0 0.00 0.00 0.00 88 1010.9
20260505062507 12 202 0.0 0.0 0.00 0.00 0.00 88 1010.9
20260505062009 12 210 0.0 0.0 0.00 0.00 0.00 88 1010.9
20260505061526 12 166 0.0 0.0 0.00 0.00 0.00 88 1010.9
20260505061012 12 216 0.0 0.0 0.00 0.00 0.00 87 1010.9
20260505060504 12 222 0.0 0.0 0.00 0.00 0.00 87 1010.9
20260505060016 12 223 0.0 0.0 0.00 0.00 0.00 86 1010.9
20260505055504 13 255 0.0 0.0 0.00 0.00 0.00 86 1011.0
20260505055006 13 245 0.0 0.0 0.00 0.00 0.00 85 1011.1
20260505054521 13 216 0.0 0.0 0.00 0.00 0.00 84 1011.0
20260505054007 13 264 0.0 0.0 0.00 0.00 0.00 84 1011.0
20260505053507 13 197 0.0 0.0 0.00 0.00 0.00 83 1011.1
20260505053022 13 234 0.0 0.0 0.00 0.00 0.00 82 1011.1
20260505052510 13 161 0.0 0.0 0.00 0.00 0.00 82 1011.2
20260505052006 13 190 0.0 0.0 0.00 0.00 0.00 81 1011.2
20260505051525 13 216 0.0 0.0 0.00 0.00 0.00 81 1011.2
20260505051007 13 228 0.0 0.0 0.00 0.00 0.00 80 1011.2
20260505050511 13 217 0.0 0.0 0.00 0.00 0.00 79 1011.2
20260505041540 15 224 0.0 0.0 0.00 0.00 0.00 74 1011.4
20260505041007 15 221 0.0 0.0 0.00 0.00 0.00 74 1011.5
20260505040512 15 224 0.0 0.0 0.00 0.00 0.00 74 1011.5
20260505040027 15 212 0.0 0.0 0.00 0.00 0.00 74 1011.6
20260505035507 15 219 0.0 0.0 0.00 0.00 0.00 74 1011.6
20260505035015 15 243 0.0 0.0 0.00 0.00 0.00 74 1011.6
20260505034527 15 233 0.0 0.0 0.00 0.00 0.00 74 1011.6
20260505034013 15 224 0.0 0.0 0.00 0.00 0.00 73 1011.6
20260505033507 15 231 0.0 0.0 0.00 0.00 0.00 73 1011.5
20260505033026 15 164 0.0 0.0 0.00 0.00 0.00 73 1011.5
20260505032507 15 166 0.0 0.0 0.00 0.00 0.00 73 1011.5
20260505032007 15 218 0.0 0.0 0.00 0.00 0.00 73 1011.6
20260505031521 15 226 0.0 0.0 0.00 0.00 0.00 73 1011.6
20260505031010 15 153 0.0 0.0 0.00 0.00 0.00 73 1011.6
20260505030507 15 221 0.0 0.0 0.00 0.00 0.00 74 1011.6
20260505030033 15 215 0.0 0.0 0.00 0.00 0.00 74 1011.7
20260505025507 15 210 0.0 0.0 0.00 0.00 0.00 74 1011.7
20260505025004 15 212 0.0 0.0 0.00 0.00 0.00 74 1011.7
20260505024509 15 256 0.0 0.0 0.00 0.00 0.00 73 1011.7
20260505024003 15 221 0.0 0.0 0.00 0.00 0.00 73 1011.7
20260505023503 15 215 0.0 0.0 0.00 0.00 0.00 72 1011.7
20260505023012 15 246 0.0 0.0 0.00 0.00 0.00 72 1011.8
20260505022504 15 248 0.0 0.0 0.00 0.00 0.00 72 1011.8
20260505022006 15 209 0.0 0.0 0.00 0.00 0.00 72 1011.8
20260505021516 15 221 0.0 0.0 0.00 0.00 0.00 72 1011.8
20260505021007 15 145 0.0 0.0 0.00 0.00 0.00 72 1011.8
20260505020506 15 222 0.0 0.0 0.00 0.00 0.00 72 1011.7
20260505020021 15 229 0.0 0.0 0.00 0.00 0.00 72 1011.7
20260505015512 15 224 0.0 0.0 0.00 0.00 0.00 73 1011.7
20260505015005 15 180 0.0 0.0 0.00 0.00 0.00 73 1011.7
20260505014508 15 216 0.0 0.0 0.00 0.00 0.00 73 1011.7
20260505014003 15 216 0.0 0.0 0.00 0.00 0.00 72 1011.7
20260505013502 15 210 0.0 0.0 0.00 0.00 0.00 72 1011.7
20260505013010 15 184 0.0 0.0 0.00 0.00 0.00 71 1011.7
20260505012507 16 165 0.0 0.0 0.00 0.00 0.00 71 1011.6
20260505012004 16 218 0.0 0.0 0.00 0.00 0.00 71 1011.5
20260505011521 16 137 0.0 0.0 0.00 0.00 0.00 71 1011.4
20260505011004 16 212 0.0 0.0 0.00 0.00 0.00 71 1011.4
20260505010505 16 211 0.0 0.0 0.00 0.00 0.00 72 1011.3
20260505010019 16 265 0.0 0.0 0.00 0.00 0.00 72 1011.1
20260505005505 15 208 0.0 0.0 0.00 0.00 0.00 73 1011.1
20260505005009 16 139 0.0 0.0 0.00 0.00 0.00 73 1011.0
20260505004533 15 157 0.0 0.0 0.00 0.00 0.00 73 1011.0
20260505004006 15 176 0.0 0.0 0.00 0.00 0.00 73 1010.9
20260505003505 15 228 0.0 0.0 0.00 0.00 0.00 73 1011.0
20260505003007 15 254 0.0 0.0 0.00 0.00 0.00 73 1010.9